BAW562 EGPH-EGLL

Flight info

Callsign BAW562
Flight time N/A
Altitude 23000
Route GOSAM1D GOSAM DCT FENIK L612 VAMEB/N0460F310 DCT NUGRA NUGRA1H
Aircraft A319/M-SDE3FGHIRWY/LB1

Departure

Time 2026-04-25 08:09
Airport Edinburgh Airport (EGPH)

Arrival

Time N/A
Airport London Heathrow Airport (EGLL)
Time Latitude Longitude Altitude Speed Heading
2026-04-25 07:57 55.94902 -3.36502 104 ft 0 kts 150°
2026-04-25 08:02 55.94911 -3.36511 104 ft 2 kts 149°
2026-04-25 08:02 55.94923 -3.36524 104 ft 2 kts 150°
2026-04-25 08:02 55.94936 -3.36538 104 ft 2 kts 155°
2026-04-25 08:02 55.94952 -3.36541 104 ft 2 kts 193°
2026-04-25 08:03 55.94965 -3.36529 104 ft 2 kts 225°
2026-04-25 08:03 55.94970 -3.36518 104 ft 1 kts 243°
2026-04-25 08:03 55.94972 -3.36511 104 ft 0 kts 239°
2026-04-25 08:04 55.94968 -3.36524 104 ft 6 kts 239°
2026-04-25 08:05 55.94928 -3.36640 104 ft 13 kts 239°
2026-04-25 08:05 55.94899 -3.36803 102 ft 9 kts 305°
2026-04-25 08:05 55.94917 -3.36915 102 ft 10 kts 237°
2026-04-25 08:05 55.94866 -3.37069 103 ft 17 kts 238°
2026-04-25 08:06 55.94797 -3.37271 102 ft 20 kts 239°
2026-04-25 08:06 55.94718 -3.37506 103 ft 24 kts 239°
2026-04-25 08:06 55.94621 -3.37789 105 ft 32 kts 240°
2026-04-25 08:06 55.94497 -3.38158 110 ft 34 kts 239°
2026-04-25 08:07 55.94373 -3.38523 115 ft 33 kts 239°
2026-04-25 08:07 55.94299 -3.38746 117 ft 11 kts 240°
2026-04-25 08:07 55.94290 -3.38868 118 ft 9 kts 318°
2026-04-25 08:07 55.94327 -3.38910 117 ft 0 kts 328°
2026-04-25 08:08 55.94327 -3.38911 117 ft 1 kts 328°
2026-04-25 08:08 55.94411 -3.38962 115 ft 13 kts 35°
2026-04-25 08:08 55.94477 -3.38787 114 ft 42 kts 59°
2026-04-25 08:08 55.94797 -3.37847 104 ft 131 kts 56°
2026-04-25 08:09 55.95349 -3.36168 391 ft 171 kts 60°
2026-04-25 08:09 55.95960 -3.34262 983 ft 186 kts 59°
2026-04-25 08:09 55.96866 -3.32337 1333 ft 222 kts 42°
2026-04-25 08:09 55.98076 -3.30514 1902 ft 230 kts 39°
2026-04-25 08:10 55.99327 -3.28746 2451 ft 232 kts 33°
2026-04-25 08:10 56.00834 -3.27850 2992 ft 233 kts
2026-04-25 08:10 56.02393 -3.28548 3549 ft 235 kts 328°
2026-04-25 08:10 56.03513 -3.30622 4097 ft 237 kts 297°
2026-04-25 08:11 56.03857 -3.33448 4639 ft 239 kts 265°
2026-04-25 08:11 56.03415 -3.36340 5205 ft 246 kts 248°
2026-04-25 08:11 56.02737 -3.39278 5764 ft 268 kts 248°
2026-04-25 08:11 56.02061 -3.42511 6321 ft 290 kts 251°
2026-04-25 08:12 56.01435 -3.46050 6873 ft 306 kts 254°
2026-04-25 08:12 56.00887 -3.49708 7419 ft 310 kts 256°
2026-04-25 08:12 56.00361 -3.53435 7970 ft 312 kts 256°
2026-04-25 08:12 55.99832 -3.57207 8522 ft 315 kts 256°
2026-04-25 08:13 55.99297 -3.60991 9072 ft 317 kts 256°
2026-04-25 08:13 55.98751 -3.64817 9624 ft 320 kts 256°
2026-04-25 08:13 55.98204 -3.68645 10173 ft 322 kts 255°
2026-04-25 08:14 55.97041 -3.76744 11286 ft 352 kts 255°
2026-04-25 08:14 55.96415 -3.81072 11844 ft 366 kts 255°
2026-04-25 08:14 55.95775 -3.85484 12391 ft 378 kts 255°
2026-04-25 08:14 55.95111 -3.90042 12942 ft 382 kts 255°
2026-04-25 08:15 55.94436 -3.94671 13498 ft 385 kts 255°
2026-04-25 08:15 55.93809 -3.99340 14052 ft 389 kts 258°
2026-04-25 08:15 55.93140 -4.04021 14591 ft 392 kts 249°
2026-04-25 08:15 55.91776 -4.08213 15138 ft 395 kts 231°
2026-04-25 08:16 55.89742 -4.11474 15686 ft 398 kts 213°
2026-04-25 08:16 55.87259 -4.13482 16230 ft 401 kts 197°
2026-04-25 08:16 55.84550 -4.14876 16793 ft 407 kts 199°
2026-04-25 08:16 55.81944 -4.16854 17346 ft 413 kts 207°
2026-04-25 08:17 55.79455 -4.19377 17896 ft 419 kts 212°
2026-04-25 08:17 55.77004 -4.22254 18452 ft 424 kts 214°
2026-04-25 08:17 55.74424 -4.24843 18989 ft 429 kts 201°
2026-04-25 08:17 55.71533 -4.26003 19537 ft 433 kts 184°
2026-04-25 08:18 55.68544 -4.25601 20087 ft 437 kts 167°
2026-04-25 08:18 55.65716 -4.23764 20643 ft 439 kts 154°
2026-04-25 08:18 55.62992 -4.21177 21207 ft 442 kts 150°
2026-04-25 08:18 55.60366 -4.18472 21754 ft 444 kts 150°
2026-04-25 08:19 55.57687 -4.15719 22305 ft 446 kts 150°
2026-04-25 08:19 55.54980 -4.12999 22643 ft 453 kts 150°
2026-04-25 08:19 55.52184 -4.10243 22714 ft 465 kts 151°
2026-04-25 08:19 55.49369 -4.07496 22721 ft 467 kts 151°
2026-04-25 08:20 55.46530 -4.04737 22723 ft 467 kts 151°
2026-04-25 08:20 55.43702 -4.01994 22723 ft 467 kts 151°
2026-04-25 08:20 55.40836 -3.99218 22723 ft 467 kts 151°
2026-04-25 08:20 55.38018 -3.96494 22724 ft 467 kts 151°
2026-04-25 08:21 55.35177 -3.93750 22726 ft 472 kts 151°
2026-04-25 08:21 55.32282 -3.90957 22723 ft 479 kts 151°
2026-04-25 08:21 55.29364 -3.88146 22723 ft 480 kts 151°
2026-04-25 08:21 55.26435 -3.85331 22723 ft 480 kts 151°
2026-04-25 08:22 55.23516 -3.82531 22724 ft 480 kts 151°
2026-04-25 08:22 55.20585 -3.79724 22724 ft 480 kts 151°
2026-04-25 08:22 55.17669 -3.76935 22724 ft 480 kts 151°
2026-04-25 08:22 55.14742 -3.74141 22724 ft 480 kts 151°
2026-04-25 08:23 55.11822 -3.71358 22724 ft 480 kts 151°
2026-04-25 08:23 55.08910 -3.68589 22724 ft 480 kts 151°
2026-04-25 08:23 55.05993 -3.65819 22724 ft 480 kts 151°
2026-04-25 08:23 55.03069 -3.63048 22724 ft 480 kts 151°
2026-04-25 08:24 55.00112 -3.60251 22724 ft 480 kts 151°
2026-04-25 08:24 54.97191 -3.57492 22724 ft 480 kts 151°
2026-04-25 08:24 54.94281 -3.54745 22724 ft 480 kts 151°
2026-04-25 08:24 54.91323 -3.51959 22724 ft 480 kts 151°
2026-04-25 08:25 54.88421 -3.49234 22724 ft 480 kts 151°
2026-04-25 08:25 54.85487 -3.46495 22723 ft 480 kts 151°
2026-04-25 08:25 54.82521 -3.43729 22723 ft 480 kts 151°
2026-04-25 08:25 54.79606 -3.41007 22723 ft 480 kts 151°
2026-04-25 08:26 54.76672 -3.38270 22723 ft 480 kts 151°
2026-04-25 08:26 54.73750 -3.35561 22722 ft 480 kts 152°
2026-04-25 08:26 54.70739 -3.33030 22723 ft 480 kts 156°
2026-04-25 08:26 54.67696 -3.30737 22724 ft 480 kts 157°
2026-04-25 08:27 54.64650 -3.28455 22724 ft 480 kts 156°
2026-04-25 08:27 54.61610 -3.26172 22724 ft 480 kts 156°
2026-04-25 08:27 54.58532 -3.23863 22724 ft 480 kts 156°
2026-04-25 08:27 54.55492 -3.21586 22724 ft 480 kts 156°
2026-04-25 08:28 54.52439 -3.19305 22724 ft 480 kts 156°
2026-04-25 08:28 54.49397 -3.17036 22724 ft 480 kts 156°
2026-04-25 08:28 54.46310 -3.14737 22724 ft 480 kts 156°
2026-04-25 08:28 54.43257 -3.12468 22724 ft 480 kts 156°
2026-04-25 08:29 54.40238 -3.10228 22723 ft 480 kts 156°
2026-04-25 08:29 54.37165 -3.07950 22724 ft 480 kts 156°
2026-04-25 08:29 54.34107 -3.05687 22724 ft 480 kts 156°
2026-04-25 08:29 54.31067 -3.03440 22724 ft 480 kts 156°
2026-04-25 08:30 54.27988 -3.01169 22724 ft 480 kts 156°
2026-04-25 08:30 54.24925 -2.98915 22724 ft 480 kts 156°
2026-04-25 08:30 54.21861 -2.96666 22724 ft 480 kts 157°
2026-04-25 08:30 54.18796 -2.94422 22724 ft 480 kts 156°
2026-04-25 08:31 54.15747 -2.92193 22724 ft 480 kts 156°
2026-04-25 08:31 54.12687 -2.89956 22724 ft 480 kts 156°
2026-04-25 08:31 54.09617 -2.87714 22724 ft 480 kts 156°
2026-04-25 08:31 54.06560 -2.85486 22724 ft 480 kts 156°
2026-04-25 08:32 54.03521 -2.83276 22724 ft 480 kts 156°
2026-04-25 08:32 54.00439 -2.81173 22723 ft 480 kts 159°
2026-04-25 08:32 53.97300 -2.79343 22724 ft 480 kts 162°
2026-04-25 08:32 53.94106 -2.77670 22724 ft 480 kts 162°
2026-04-25 08:33 53.90910 -2.75982 22724 ft 480 kts 162°
2026-04-25 08:33 53.87730 -2.74302 22724 ft 480 kts 162°
2026-04-25 08:33 53.84565 -2.72637 22724 ft 480 kts 162°
2026-04-25 08:33 53.81368 -2.70958 22723 ft 480 kts 162°
2026-04-25 08:34 53.78191 -2.69290 22723 ft 480 kts 162°
2026-04-25 08:34 53.75019 -2.67625 22724 ft 480 kts 162°
2026-04-25 08:34 53.71852 -2.65965 22723 ft 480 kts 162°
2026-04-25 08:34 53.68664 -2.64295 22724 ft 480 kts 162°
2026-04-25 08:35 53.65478 -2.62629 22724 ft 480 kts 162°
2026-04-25 08:35 53.62285 -2.60961 22723 ft 480 kts 162°
2026-04-25 08:35 53.59136 -2.59319 22724 ft 480 kts 162°
2026-04-25 08:35 53.55929 -2.57650 22724 ft 480 kts 162°
2026-04-25 08:36 53.52740 -2.55991 22724 ft 480 kts 162°
2026-04-25 08:36 53.49559 -2.54340 22724 ft 480 kts 162°
2026-04-25 08:36 53.46369 -2.52686 22724 ft 480 kts 162°
2026-04-25 08:36 53.43226 -2.51060 22724 ft 480 kts 162°
2026-04-25 08:37 53.40047 -2.49417 22724 ft 480 kts 162°
2026-04-25 08:37 53.36843 -2.47764 22724 ft 480 kts 162°
2026-04-25 08:37 53.33651 -2.46119 22724 ft 480 kts 162°
2026-04-25 08:37 53.30478 -2.44486 22724 ft 480 kts 162°
2026-04-25 08:38 53.27288 -2.42846 22724 ft 480 kts 162°
2026-04-25 08:38 53.24103 -2.41212 22724 ft 480 kts 162°
2026-04-25 08:38 53.20948 -2.39594 22724 ft 480 kts 162°
2026-04-25 08:38 53.17747 -2.37954 22724 ft 480 kts 162°
2026-04-25 08:39 53.14591 -2.36339 22724 ft 480 kts 162°
2026-04-25 08:39 53.11395 -2.34708 22724 ft 480 kts 163°
2026-04-25 08:39 53.08199 -2.33069 22723 ft 480 kts 163°
2026-04-25 08:39 53.05078 -2.31243 22722 ft 480 kts 159°
2026-04-25 08:40 53.02038 -2.29010 22722 ft 480 kts 154°
2026-04-25 08:40 52.99114 -2.26369 22722 ft 480 kts 149°
2026-04-25 08:40 52.96274 -2.23437 22723 ft 480 kts 148°
2026-04-25 08:40 52.93454 -2.20471 22723 ft 480 kts 148°
2026-04-25 08:41 52.90675 -2.17542 22723 ft 480 kts 148°
2026-04-25 08:41 52.87866 -2.14595 22724 ft 480 kts 148°
2026-04-25 08:41 52.85032 -2.11642 22724 ft 480 kts 148°
2026-04-25 08:41 52.82222 -2.08722 22724 ft 480 kts 148°
2026-04-25 08:42 52.79392 -2.05784 22724 ft 480 kts 148°
2026-04-25 08:42 52.76565 -2.02851 22724 ft 480 kts 148°
2026-04-25 08:42 52.73764 -1.99947 22724 ft 480 kts 148°
2026-04-25 08:42 52.70928 -1.97011 22724 ft 480 kts 148°
2026-04-25 08:43 52.68121 -1.94108 22724 ft 480 kts 148°
2026-04-25 08:43 52.65272 -1.91166 22724 ft 480 kts 148°
2026-04-25 08:43 52.62439 -1.88245 22724 ft 480 kts 148°
2026-04-25 08:43 52.59631 -1.85354 22724 ft 480 kts 148°
2026-04-25 08:44 52.56811 -1.82455 22724 ft 480 kts 148°
2026-04-25 08:44 52.53975 -1.79544 22724 ft 480 kts 148°
2026-04-25 08:44 52.51146 -1.76644 22724 ft 480 kts 148°
2026-04-25 08:44 52.48325 -1.73757 22724 ft 480 kts 148°
2026-04-25 08:45 52.45492 -1.70862 22724 ft 480 kts 148°
2026-04-25 08:45 52.42681 -1.67995 22723 ft 479 kts 148°
2026-04-25 08:45 52.39904 -1.65164 22720 ft 455 kts 148°
2026-04-25 08:45 52.37323 -1.62541 22720 ft 434 kts 148°
2026-04-25 08:46 52.34822 -1.60005 22723 ft 416 kts 148°
2026-04-25 08:46 52.32344 -1.57494 22724 ft 415 kts 148°
2026-04-25 08:46 52.29915 -1.55033 22724 ft 415 kts 148°
2026-04-25 08:46 52.27445 -1.52534 22723 ft 415 kts 148°
2026-04-25 08:47 52.25009 -1.50073 22564 ft 410 kts 148°
2026-04-25 08:47 52.22642 -1.47642 21973 ft 408 kts 146°
2026-04-25 08:47 52.20351 -1.44874 21258 ft 409 kts 140°
2026-04-25 08:47 52.18215 -1.41937 20769 ft 403 kts 139°
2026-04-25 08:48 52.16102 -1.38971 20244 ft 399 kts 139°
2026-04-25 08:48 52.14015 -1.36037 19843 ft 396 kts 139°
2026-04-25 08:48 52.11928 -1.33110 19735 ft 396 kts 139°
2026-04-25 08:48 52.09843 -1.30185 19414 ft 397 kts 139°
2026-04-25 08:49 52.07765 -1.27281 18863 ft 394 kts 140°
2026-04-25 08:49 52.05698 -1.24402 18312 ft 391 kts 140°
2026-04-25 08:49 52.03645 -1.21551 17761 ft 388 kts 140°
2026-04-25 08:49 52.01630 -1.18759 17217 ft 385 kts 140°
2026-04-25 08:50 51.99599 -1.15951 16664 ft 383 kts 140°
2026-04-25 08:50 51.97518 -1.13075 16108 ft 401 kts 140°
2026-04-25 08:50 51.95417 -1.10172 15558 ft 397 kts 140°
2026-04-25 08:50 51.93348 -1.07316 15030 ft 393 kts 140°
2026-04-25 08:51 51.91251 -1.04428 14759 ft 391 kts 140°
2026-04-25 08:51 51.89242 -1.01669 14728 ft 373 kts 140°
2026-04-25 08:51 51.87265 -0.98975 14726 ft 368 kts 140°
2026-04-25 08:51 51.85403 -0.96161 14364 ft 369 kts 129°
2026-04-25 08:52 51.84081 -0.92667 13825 ft 366 kts 117°
2026-04-25 08:52 51.82967 -0.89009 13277 ft 364 kts 115°
2026-04-25 08:52 51.81876 -0.85329 12724 ft 361 kts 115°
2026-04-25 08:52 51.80767 -0.81670 12166 ft 359 kts 118°
2026-04-25 08:53 51.79471 -0.78294 11620 ft 357 kts 123°
2026-04-25 08:53 51.78084 -0.75025 11072 ft 355 kts 124°
2026-04-25 08:53 51.76683 -0.71729 10514 ft 352 kts 121°
2026-04-25 08:53 51.75737 -0.68155 9967 ft 350 kts 107°
2026-04-25 08:54 51.75030 -0.64405 9413 ft 348 kts 108°
2026-04-25 08:54 51.74201 -0.60757 8860 ft 345 kts 112°
2026-04-25 08:54 51.73251 -0.57258 8314 ft 343 kts 114°
2026-04-25 08:54 51.72102 -0.53885 7871 ft 337 kts 122°